Location: Fort Worth, Tx
(32.7431°N, 97.3695°W)
Time: 12:00:14
(UTC-04:00)

Tiros 1 - Pass Details

Date: 24 February 2024
Orbit: 625 x 657 km, 48.4° (Epoch: 24 April)

Event Time Altitude Azimuth Distance (km) Brightness Sun altitude
Rises 21:24:56 0° 223° (SW) 2,956 11.0 -26.5°
Reaches altitude 10° 21:27:16 10° 221° (SW) 2,051 10.1 -27.0°
Enters shadow 21:30:13 38° 210° (SSW) 1,003 8.2 -27.6°
